Location: Sinnemahoning State Park
(41.4031°N, 78.0230°W)
Time: 22:32:26
(UTC-04:00)

Daily predictions for brighter satellites

Satellite Brightness Start Highest point End
(mag) Time Altitude Azimuth Time Altitude Azimuth Time Altitude Azimuth
Cosmos 2150 Rocket 4.1 19:22:40 10° NNW 19:27:59 63° ENE 19:33:20 10° SSE
COSMO-SKYMED 1 2.8 19:26:42 10° N 19:31:03 78° WNW 19:35:23 10° SSW
USA 229 DEB 4.1 19:24:21 10° NW 19:31:33 80° WSW 19:38:53 10° SSE
USA 229 4.0 19:24:27 10° NW 19:31:39 80° WSW 19:38:58 10° SSE
Cosmos 2181 Rocket 4.0 19:29:38 10° N 19:35:50 70° E 19:41:55 10° SSE
NOSS 3-1 (A) 4.3 19:28:36 10° NNW 19:35:56 51° NE 19:44:02 10° ESE
Cosmos 1758 Rocket 3.6 19:32:27 10° N 19:36:58 77° E 19:41:27 10° SSE
Cosmos 841 Rocket 3.6 19:32:59 10° S 19:37:56 51° ESE 19:42:55 10° NNE
Cosmos 1340 Rocket 2.9 19:36:53 10° N 19:40:58 86° W 19:45:03 10° S
Cosmos 1726 Rocket 3.5 19:37:07 10° S 19:41:28 81° E 19:45:49 10° N
Cosmos 1937 Rocket 3.6 19:36:49 10° NNW 19:42:10 88° WSW 19:47:25 10° SSE
FREGAT/IRIS 3.1 19:39:55 10° SE 19:42:46 38° ENE 19:45:38 10° N
Cosmos 389 Rocket 3.0 19:39:18 10° SSW 19:42:47 63° W 19:46:14 10° N
NOSS 3-1 (C) 4.1 19:37:06 10° NNW 19:44:41 71° NE 19:53:06 10° SE
Cosmos 2084 3.3 19:43:21 10° SW 19:47:27 82° NW 19:51:22 10° NE
Cosmos 2074 Rocket 4.2 19:43:22 10° SSE 19:49:16 48° E 19:55:11 10° NNE
Cosmos 2298 Rocket 4.4 19:47:57 10° NNW 19:53:16 69° WSW 19:58:33 10° S
Cosmos 1943 Rocket 3.2 19:48:46 10° NW 19:54:08 49° WSW 19:59:31 10° S
Cosmos 540 Rocket 4.0 19:50:20 10° SSE 19:54:56 36° ESE 19:59:35 10° NE
Cosmos 1763 Rocket 3.6 19:52:06 10° SSW 19:57:12 80° WNW 20:02:24 10° NNE
HJ-1C 3.7 19:57:07 10° SSE 20:00:17 43° ENE 20:03:31 10° N
Meteor 1-24 Rocket 3.9 19:54:40 10° N 20:00:33 56° ENE 20:06:13 10° SSE
Cosmos 2228 3.1 20:02:47 10° S 20:07:10 80° W 20:11:31 10° N
SJ-6B 2.7 20:09:00 10° SSE 20:13:00 76° ENE 20:16:56 10° N
Cosmos 1953 3.7 20:17:35 20° ENE 20:17:35 20° ENE 20:19:51 10° NE
Resurs 01 Rocket 2.1 20:14:19 17° SE 20:17:16 38° ENE 20:21:22 10° N
Nadezhda 3 Rocket 4.4 20:11:57 10° N 20:17:52 40° ENE 20:23:05 13° SE
Cosmos 1356 Rocket 3.6 20:15:43 10° NNW 20:20:02 81° W 20:24:20 10° S
GP-B 3.6 20:16:25 10° NNE 20:20:33 36° E 20:23:34 16° SSE
Cosmos 1812 Rocket 3.9 20:16:47 10° SSE 20:21:00 44° E 20:25:16 10° NNE
Meteor 2-8 Rocket 4.4 20:16:04 10° N 20:22:09 62° E 20:28:10 10° SSE
Thor Agena Rocket 4.2 20:19:05 10° N 20:24:15 58° WNW 20:29:19 10° SSW
H-2A R/B 3.0 20:21:18 10° S 20:24:59 65° W 20:28:44 10° NNW
Cosmos 2184 Rocket 4.0 20:20:39 10° S 20:26:57 89° W 20:33:23 10° N
Cosmos 2058 Rocket 4.3 20:23:04 10° SSW 20:27:13 43° WNW 20:31:25 10° N
Spot 2 Rocket 3.8 20:24:52 20° SE 20:28:03 46° ENE 20:32:52 10° N
Cosmos 1656 Rocket 4.2 20:22:57 10° NNW 20:28:30 60° WSW 20:33:56 10° S
Cosmos 836 Rocket 4.4 20:27:24 10° SSW 20:32:41 85° ESE 20:37:58 10° NNE
BREEZE-M DEB (TANK) 3.2 20:31:26 10° NW 20:32:50 17° N 20:32:50 17° N
Cosmos 1610 Rocket 4.5 20:26:46 10° S 20:33:04 72° E 20:39:27 10° NNE
Meteor 2-19 Rocket 4.3 20:28:36 10° S 20:34:33 64° E 20:40:33 10° NNE
USA 186 3.8 20:36:33 12° N 20:36:33 12° N 20:36:49 10° N
Cosmos 292 Rocket 4.1 20:34:17 10° S 20:38:48 41° ESE 20:43:21 10° NE
Milstar 3 Cent rocket 3.7 20:38:41 10° SSW 20:41:42 16° S 20:42:10 16° SSE
COSMOS 2406 3.5 20:39:20 10° SSW 20:45:01 71° WNW 20:50:46 10° NNE
BREEZE-M (TANK) 4.3 20:32:59 10° WNW 20:45:33 50° SW 20:48:01 23° SSE
Cosmos 783 Rocket 4.5 20:40:50 10° S 20:45:54 56° ESE 20:50:59 10° NNE
Cosmos 1766 4.1 20:42:25 10° SSW 20:46:15 50° W 20:50:04 10° N
Okean 3 Rocket 4.2 20:43:13 10° N 20:46:57 36° ENE 20:46:57 36° ENE
MOS 1-B Rocket 3.8 20:43:09 17° SSE 20:48:03 70° ENE 20:53:41 10° N
ISS -2.7 20:45:01 10° SW 20:47:03 32° SSW 20:47:03 32° SSW
Cosmos 1544 3.9 20:45:57 10° SSW 20:49:28 51° W 20:53:00 10° N
Cosmos 1125 Rocket 3.6 20:48:16 10° NNW 20:53:35 76° WSW 20:57:04 22° S
Cosmos 1356 3.4 20:52:29 10° NNW 20:55:59 78° W 20:56:11 74° SW
BREEZE-M DEB (TANK) 3.3 20:46:37 10° WSW 20:57:52 87° SSE 20:59:22 44° ENE
Cosmos 372 Rocket 4.0 20:52:45 10° NNW 20:58:01 79° WSW 21:00:50 28° S
Cosmos 2369 4.2 20:53:27 10° N 20:58:45 40° ENE 20:59:14 39° ENE
Cosmos 1674 3.2 20:55:17 10° N 20:58:03 44° NNE 20:58:03 44° NNE
Envisat 2.9 20:57:59 32° SSE 21:00:23 85° ENE 21:05:29 10° NNW
Cosmos 1758 3.2 20:59:36 50° S 21:00:36 88° E 21:04:38 10° N
Meteor 1-21 Rocket 4.2 20:55:10 10° N 21:00:53 65° ENE 21:02:33 44° SE
Elektron 1 4.5 21:00:01 10° NW 21:02:32 52° NW 21:02:32 52° NW
ATLAS CENTAUR R/B 4.1 20:55:34 10° NW 21:06:40 42° WSW 21:09:50 19° S
Cosmos 962 Rocket 4.4 21:02:19 10° S 21:08:39 78° E 21:15:02 10° N
Cosmos 1939 Rocket 3.5 21:14:51 47° N 21:14:51 47° N 21:17:44 10° N
H-2A R/B 4.1 21:18:39 13° NNE 21:18:39 13° NNE 21:19:36 10° NNE
SJ-11-01 4.2 21:16:34 77° NE 21:16:34 77° NE 21:21:09 10° N
ATLAS 2AS CENTAUR R/B 3.3 21:10:17 10° NNW 21:18:02 48° NE 21:19:38 43° ENE
Cosmos 2278 3.7 21:27:49 10° NNW 21:33:05 68° NNE 21:33:05 68° NNE
Cosmos 2341 Rocket 4.5 21:38:21 10° SSW 21:44:26 58° W 21:50:35 10° N
Cosmos 2322 Rocket 4.5 21:43:29 10° NNE 21:44:25 12° NNE 21:44:25 12° NNE
Cosmos 1953 4.4 21:53:13 26° WNW 21:53:13 26° WNW 21:56:29 10° NNW
Resurs 01 Rocket 4.0 21:51:54 15° SW 21:53:52 19° W 21:57:04 10° NW
Cosmos 1697 Rocket 3.5 21:50:15 10° NNW 21:54:09 42° N 21:54:09 42° N
Cosmos 1656 4.2 21:51:08 10° NNW 21:55:33 56° NNW 21:55:33 56° NNW
FALCON 9 R/B 3.5 21:52:56 10° WSW 21:55:15 32° SW 21:55:15 32° SW
Cosmos 1980 Rocket 3.6 21:52:01 10° N 21:55:07 28° NNE 21:55:07 28° NNE
Cosmos 2218 Rocket 4.4 22:12:20 57° NNW 22:12:20 57° NNW 22:17:27 10° N
SL-16 R/B 4.4 22:19:31 10° N 22:21:08 16° NNE 22:21:08 16° NNE
CZ-3A R/B 4.4 22:29:57 10° WNW 22:48:25 52° NNE 22:48:58 51° NNE
ATLAS 2AS CENTAUR R/B 4.0 23:01:39 10° NW 23:07:04 37° W 23:07:04 37° W
